Miscellaneous Local Product
Issued by NWS Hastings, NE

Home | Current Version | Previous Version | Text Only | Print | Product List | Glossary Off
Versions: 1 2 3 4 5 6 7 8 9 10 11 12 13 14 15 16 17 18 19 20 21 22 23 24 25 26 27 28 29 30 31 32 33 34 35 36 37 38 39 40 41 42 43 44 45 46 47 48 49 50

000
AXUS43 KGID 192002
MISGRI

GID CWA HOURLY WEATHER ROUNDUP
NATIONAL WEATHER SERVICE HASTINGS NE
200 PM CST WED NOV 19 2014

NOTE: "FAIR" INDICATES FEW OR NO CLOUDS BELOW 12,000 FEET WITH NO
SIGNIFICANT WEATHER AND/OR OBSTRUCTIONS TO VISIBILITY.

...SOUTH CENTRAL NEBRASKA...

CITY           SKY/WX    TMP DP  RH WIND       PRES   REMARKS
GRAND ISLAND   CLOUDY    33  17  51 NW18      30.13F WCI  22
HASTINGS       CLOUDY    34  16  47 NW16G24   30.13F WCI  24
KEARNEY        CLOUDY    34  18  51 W10       30.15S WCI  26
ORD            MOSUNNY   31  16  54 N14       30.11F WCI  21
YORK           SUNNY     32  18  55 NW15      30.14S WCI  22
AURORA         MOSUNNY   32  18  55 NW13      30.13F WCI  23
LEXINGTON      CLOUDY    36  22  56 NW14      30.12F WCI  27
HOLDREGE       CLOUDY    35  20  55 NW6       30.13F WCI  30
HEBRON         SUNNY     36  15  43 N10G17    30.16F WCI  28

...NEBRASKA PANHANDLE...

CITY           SKY/WX    TMP DP  RH WIND       PRES   REMARKS
CHADRON        SUNNY     35  23  61 W21G29    30.06F WCI  24
ALLIANCE       SUNNY     41  20  43 NW22      30.02F
SCOTTSBLUFF    SUNNY     45  20  36 NW10      30.04F
SIDNEY         SUNNY     44  19  36 NW10      30.05F

...WESTERN AND NORTH CENTRAL NEBRASKA...

CITY           SKY/WX    TMP DP  RH WIND       PRES   REMARKS
VALENTINE      SUNNY     27  17  66 NW15      30.08F WCI  15
AINSWORTH      MOSUNNY   24  16  69 NW14      30.09F WCI  12
ONEILL         CLOUDY    23  17  75 NW10      30.10F WCI  13
BROKEN BOW     CLOUDY    33  20  58 NW12      30.09F WCI  24
IMPERIAL       SUNNY     46  19  34 N10       30.07F
NORTH PLATTE   PTSUNNY   38  22  52 SW6       30.09F WCI  33
MCCOOK         SUNNY     44  22  41 W6        30.10F

...EASTERN NEBRASKA...

CITY           SKY/WX    TMP DP  RH WIND       PRES   REMARKS
NORFOLK        CLOUDY    25  15  66 NW14      30.10F WCI  13
SO SIOUX CITY  CLOUDY    26  15  63 NW15      30.09F WCI  14
TEKAMAH        CLOUDY    28  16  60 NW14      30.13F WCI  17
COLUMBUS       PTSUNNY   27  14  59 NW15      30.14F WCI  15
ALBION         MOSUNNY   26  16  65 NW9G16    30.11F WCI  17
OMAHA EPPLEY   FLURRIES  27  16  63 NW18G25   30.15F WCI  14
OFFUTT AFB     CLOUDY    28  16  61 NW14      30.14S WCI  16
MILLARD        CLOUDY    28  16  60 NW12G20   30.15S WCI  18
LINCOLN        SUNNY     29  16  58 NW15      30.17F WCI  18
NEBRASKA CITY  MOSUNNY   30  12  48 NW15G22   30.14S WCI  19
BEATRICE       SUNNY     33  18  54 NW13      30.16S WCI  23
FALLS CITY     SUNNY     32  17  54 NW17G25   30.15S WCI  21

...NORTHERN KANSAS...

CITY           SKY/WX    TMP DP  RH WIND       PRES   REMARKS
GOODLAND       SUNNY     49  18  29 NW12      30.09F
HILL CITY      MOSUNNY   44  22  41 VRB7      30.15F
NORTON         PTCLDY    39  18  41 SW6       30.12F WCI  35
PHILLIPSBURG   MOSUNNY   45  23  42 NW7G17    30.16F
BELOIT         SUNNY     43  16  33 NW13G23   30.17S
HAYS           CLOUDY    45  21  39 NW9       30.15F
RUSSELL        MOSUNNY   43  22  43 N10       30.15F
CONCORDIA      SUNNY     39  16  39 NW8       30.16F WCI  33
SALINA         SUNNY     46  18  32 N18       30.17F
TOPEKA         MOSUNNY   41  19  41 NW14G23   30.16S



USA.gov is the U.S. government's official web portal to all federal, state and local government web resources and services.